Reflectivity
16 16 17 17 17 17 15 10 14 -6 12 4 -20 -20 -20 -20 -20 -20 -20 -20 -20 -20 -20 2 -4 -5 -20 -20 -20 -20 -20 -20 -20 -20 -20 -20 -20 -20 -20 -20 -20 -20 -20 -20 -20
15 16 17 17 16 17 11 16 13 -7 8 5 -20 -20 -20 -20 -20 -20 -20 -20 -20 -20 -20 -14 -14 -2 -20 -20 -20 -20 -20 -20 -20 -20 -20 -20 -20 -20 -20 -20 -20 -20 -20 -20 -20
4 -3 14 16 16 17 15 16 12 12 8 -20 -20 -20 -20 -20 -20 -20 -20 -20 -20 -20 -20 -20 -20 -10 -6 -20 -20 -20 -20 -20 -20 -20 -20 -20 -20 -20 -20 -20 -20 -20 -20 -20 -20
-20 -20 -20 14 17 14 16 13 11 -17 -12 -20 -20 -20 -20 -20 -20 -20 -20 -20 -18 -20 -20 -20 -20 -20 -20 -20 -19 -19 -20 -20 -20 -20 -20 -20 -20 -20 -20 -20 -20 -20 -20 -20 -20
-20 -20 -18 13 15 16 12 11 -5 5 -18 -20 -20 -20 -20 -20 -20 -20 -20 -20 -20 -20 -20 -20 -18 -20 -20 -20 -20 -20 -20 -20 -20 -20 -20 -20 -20 -20 -20 -20 -20 -20 -20 -20 -20
-20 -20 -20 -20 4 6 12 7 10 -9 -20 -20 -20 -20 -20 -20 -20 -20 -20 -20 4 -20 -20 -20 -20 -20 5 -20 -12 -20 -20 -20 -20 -20 -20 -20 -20 -20 -20 -20 -20 -20 -20 -20 -20
-20 -20 -20 -20 -20 -20 -1 8 1 -20 -20 -20 -20 -20 -20 -20 -20 -20 -20 -20 -20 -20 -20 -20 -20 -20 -20 -20 6 -16 -20 -20 -20 -20 -20 -20 -20 -20 -20 -20 -20 -20 -20 -20 -20
-20 -20 -20 -20 -20 -20 -20 -4 -20 -20 -20 -20 -20 -20 -20 -20 -20 -20 -20 -20 -20 -20 -20 -20 -20 -20 -20 -9 -19 -20 23 -20 2 -20 -20 -20 -20 -20 -20 -20 -20 -20 -20 -20 -20
-20 -20 -20 -20 -20 -20 -20 -20 -20 -20 -20 -20 -20 -20 -20 -20 -20 -20 -20 -20 -20 -20 -20 -20 -20 -20 -20 -20 8 -0 -18 8 -20 -20 -20 -20 -20 -20 -20 -20 -20 -20 -20 -20 -20
-20 -20 -20 -20 -20 -20 -20 -20 -20 -20 -20 -20 -20 -20 -20 -20 -20 -20 -20 -20 -20 -20 -20 -20 -20 -20 -20 -20 -20 -20 -20 -8 -20 -20 -20 -20 -20 -20 -20 -20 -20 -20 -20 -20 -20
-20 -20 -20 -20 -20 -20 -20 -20 -20 -20 -20 -20 -20 -20 -20 -20 -20 -20 -20 -20 -20 -20 -20 -20 -20 -20 -20 -20 -20 -20 -20 -20 -20 -20 -20 -20 -20 -20 -20 -20 -20 -20 -20 -20 -20
-20 -20 -20 -20 -20 -20 -20 -20 -20 -20 -20 -20 -20 -20 -20 -20 -20 -20 -20 -20 -20 -20 -20 -20 -20 -20 -20 -20 -20 -20 -20 -20 -20 -20 -20 -20 -20 -20 -20 -20 -20 -20 -20 -20 -20
-20 -20 -20 -20 -20 -20 -20 -20 -20 -20 -20 -20 -20 -20 -20 -20 -20 -20 -20 -20 -20 -20 -20 -20 -20 -20 -20 -20 -20 -20 -20 -20 -20 -20 -20 -20 -20 -20 -20 -20 -20 -20 -20 -20 -20
-20 -20 -20 -20 -20 -20 -20 -20 -20 -20 -20 -20 -20 -20 -20 -20 -20 -20 -20 -20 -20 -20 -20 -20 -20 -20 -20 -20 -20 -20 -20 -20 -20 -20 -20 -20 -20 -20 -20 -20 -20 -20 -20 -20 -20
-20 -20 -20 -20 -20 -20 -20 -20 -20 -20 -20 -20 -20 -20 -20 -20 -20 -20 -20 -20 -20 -20 -20 -20 -20 -20 -20 -20 -20 -20 -20 -20 -20 -20 -20 -20 -20 -20 -20 -20 -20 -20 -20 -20 -20
-20 -20 -20 -20 -20 -20 -20 -20 -20 -20 -20 -20 -20 -20 -20 -20 -20 -20 -20 -20 -20 -20 -20 -20 -20 -20 -20 -20 -20 -20 -20 -20 -20 -20 -20 -20 -20 -20 -20 -20 -20 -20 -20 -20 -20
-20 -20 -20 -20 -20 -20 -20 -20 -20 -20 -20 -20 -20 -20 -20 -20 -20 -20 -20 -20 -20 -20 -20 -20 -20 -20 -20 -20 -20 -20 -20 -20 -20 -20 -20 -20 -20 -20 -20 -20 -20 -20 -20 -20 -20
-20 -20 -20 -20 -20 -20 -20 -20 -20 -20 -20 -20 -20 -20 -20 -20 -20 -20 -20 -20 -20 -20 -20 -20 -20 -20 -20 -20 -20 -20 -20 -20 -20 -20 -20 -20 -20 -20 -20 -20 -20 -20 -20 -20 -20
-20 -20 -20 -20 -20 -20 -20 -20 -20 -20 -20 -20 -20 -20 -20 -20 -20 -20 -20 -20 -20 -20 -20 -20 -20 -20 -20 -20 -20 -20 -20 -20 -20 -20 -20 -20 -20 -20 -20 -20 -20 -20 -20 -20 -20
-20 -20 -20 -20 -20 -20 -20 -20 -20 -20 -20 -20 -20 -20 -20 -20 -20 -20 -20 -20 -20 -20 -20 -20 -20 -20 -20 -20 -20 -20 -20 -20 -20 -20 -20 -20 -20 -20 -20 -20 -20 -20 -20 -20 -20
-20 -20 -20 -20 -20 -20 -20 -20 -20 -20 -20 -20 -20 -20 -20 -20 -20 -20 -20 -20 -20 -20 -20 -20 -20 -20 -20 -20 -20 -20 -20 -20 -20 -20 -20 -20 -20 -20 -20 -20 -20 -20 -20 -20 -20
-20 -20 -20 -20 -20 -20 -20 -20 -20 -20 -20 -20 -20 -20 -20 -20 -20 -20 -20 -20 -20 -20 -20 -20 -20 -20 -20 -20 -20 -20 -20 -20 -20 -20 -20 -20 -20 -20 -20 -20 -20 -20 -20 -20 -20
-20 -20 -20 -20 -20 -20 -20 -20 -20 -20 -20 -20 -20 -20 -20 -20 -20 -20 -20 -20 -20 -20 -20 -20 -20 -20 -20 -20 -20 -20 -20 -20 -20 -20 -20 -20 -20 -20 -20 -20 -20 -20 -20 -20 -20
-20 -20 -20 -20 -20 -20 -20 -20 -20 -20 -20 -20 -20 -20 -20 -20 -20 -20 -20 -20 -20 -20 -20 -20 -20 -20 -20 -20 -20 -20 -20 -20 -20 -20 -20 -20 -20 -20 -20 -20 -20 -20 -20 -20 -20
-20 -20 -20 -20 -20 -20 -20 -20 -20 -20 -20 -20 -20 -20 -20 -20 -20 -20 -20 -20 -20 -20 -20 -20 -20 -20 -20 -20 -20 -20 -20 -20 -20 -20 -20 -20 -20 -20 -20 -20 -20 -20 -20 -20 -20
-20 -20 -20 -20 -20 -20 -20 -20 -20 -20 -20 -20 -20 -20 -20 -20 -20 -20 -20 -20 -20 -20 -20 -20 -20 -20 -20 -20 -20 -20 -20 -20 -20 -20 -20 -20 -20 -20 -20 -20 -20 -20 -20 -20 -20
-20 -20 -20 -20 -20 -20 -20 -20 -20 -20 -20 -20 -20 -20 -20 -20 -20 -20 -20 -20 -20 -20 -20 -20 -20 -20 -20 -20 -20 -20 -20 -20 -20 -20 -20 -20 -20 -20 -20 -20 -20 -20 -20 -20 -20
Wind_Speed
13 13 14 13 13 12 12 11 11 11 11 13 13 13 12 13 14 2 3 4 6 12 4 5 5 6 6 5 1 2 4 4 6 7 6 7 7 6 5 14 3 1 6 9 15
14 14 15 14 13 13 12 11 11 11 12 12 13 12 11 11 3 2 7 11 18 12 7 4 8 7 5 4 3 3 2 3 3 3 10 10 11 9 8 11 6 12 11 17 17
16 15 16 15 14 13 12 12 11 11 11 12 12 12 10 7 1 4 7 16 16 8 8 7 2 4 5 3 1 1 2 5 4 3 8 8 9 5 16 6 16 16 17 20 18
16 16 15 16 15 13 12 11 10 10 10 11 10 11 11 1 5 1 9 15 15 5 3 4 4 1 1 0 2 4 7 6 4 7 7 6 7 12 2 8 12 12 19 19 18
17 17 17 16 15 14 12 10 9 10 9 9 8 9 3 1 6 6 8 12 8 10 9 9 7 3 3 4 4 2 5 12 10 10 8 9 7 6 5 15 9 10 16 18 16
17 18 17 16 16 14 12 10 9 9 7 7 6 7 1 0 3 8 8 6 5 5 3 5 5 6 3 3 3 3 6 15 12 9 4 11 8 6 4 13 12 10 11 13 15
18 17 17 16 15 14 12 10 8 8 7 5 4 3 1 6 2 7 7 6 5 5 2 3 2 3 3 2 3 5 6 9 9 5 5 10 4 7 12 13 15 13 11 9 9
18 18 17 17 16 14 13 11 8 6 5 4 2 1 5 3 5 5 3 2 4 5 3 5 4 3 2 4 4 4 4 4 4 3 1 5 4 7 12 13 14 14 13 11 9
18 18 17 17 17 15 12 12 6 3 3 6 1 1 6 1 2 4 4 3 1 1 4 5 2 4 3 5 4 4 5 4 4 5 4 4 3 11 10 12 13 14 13 10 8
22 20 18 17 16 15 15 5 8 5 2 3 3 3 3 4 4 5 2 0 2 4 4 3 5 4 3 4 4 6 5 6 6 4 2 1 5 15 14 12 15 12 9 8 11
17 20 20 19 17 12 6 3 4 2 1 7 5 3 4 3 5 4 4 4 0 6 2 3 4 7 9 7 4 2 3 4 2 3 4 5 5 15 16 10 9 9 8 10 14
22 20 21 21 19 7 1 2 2 2 7 8 4 6 5 2 3 2 4 5 3 4 2 6 7 5 6 7 9 5 2 2 2 3 2 4 5 6 13 17 13 11 11 14 10
22 22 21 22 13 3 0 5 2 2 2 7 6 5 5 9 7 8 9 4 3 2 2 6 6 2 6 3 6 2 6 4 2 2 1 2 5 5 6 12 10 8 10 12 14
23 21 19 24 1 3 4 3 2 5 5 6 3 7 4 5 2 5 7 6 1 8 4 5 5 2 2 4 6 3 13 4 3 5 4 5 5 4 9 13 13 15 11 14 13
24 21 17 9 3 1 3 7 3 5 3 2 3 1 3 8 3 3 4 5 7 5 6 8 1 5 4 5 7 11 6 16 7 5 2 1 1 7 10 11 16 16 16 15 15
24 20 14 2 1 7 8 7 5 7 2 0 3 4 5 1 1 3 3 4 3 4 2 7 3 5 7 3 9 4 4 8 6 4 3 6 7 5 7 24 14 13 16 18 18
25 20 5 2 4 5 4 6 6 3 4 4 0 2 4 4 3 5 6 6 6 3 4 7 5 4 4 4 3 4 7 3 4 2 7 1 5 12 7 10 19 20 21 18 17
28 19 8 5 3 6 4 6 2 1 3 3 3 3 6 5 4 4 7 5 5 3 3 3 10 5 4 8 7 3 8 8 6 4 6 4 6 9 6 10 13 17 20 17 14
21 3 1 5 6 1 7 4 5 3 4 6 6 3 2 1 2 1 5 8 8 10 9 6 8 5 5 4 7 3 3 4 9 2 3 5 8 10 2 6 5 8 7 13 15
3 4 4 4 4 6 7 3 2 2 4 4 2 2 3 4 4 7 7 5 8 12 4 5 3 6 6 4 3 6 7 4 4 3 4 6 5 7 6 6 4 8 12 8 7
4 5 3 1 3 7 4 6 4 4 4 2 1 2 5 4 6 4 5 4 4 2 8 5 5 7 4 4 8 1 1 6 6 5 7 2 8 7 7 7 12 14 14 13 12
3 4 4 2 5 2 2 1 6 6 6 4 2 4 3 3 3 3 7 2 8 1 4 7 6 7 16 7 6 6 10 8 7 6 3 5 11 4 7 9 12 15 14 13 9
4 3 5 4 4 3 6 4 2 6 5 4 3 3 4 4 5 2 1 6 7 6 3 3 1 3 10 6 3 5 6 6 6 4 7 6 11 4 6 5 11 12 9 8 8
3 4 6 7 1 4 4 3 6 7 2 5 2 5 5 3 3 4 6 4 6 7 5 4 3 7 7 9 4 5 6 7 8 5 5 8 10 9 8 8 8 8 8 8 8
5 1 2 4 4 4 3 3 5 7 6 9 7 6 4 3 5 2 2 6 5 8 7 5 2 2 7 10 7 7 7 9 7 7 7 8 8 13 10 12 16 11 7 8 9
3 4 5 1 4 3 5 4 5 5 3 3 3 9 3 3 4 3 1 2 3 7 6 6 2 2 5 7 7 7 6 6 6 5 5 5 6 9 7 2 6 11 13 10 10
3 3 3 3 3 3 1 4 4 5 6 5 5 3 2 2 6 7 6 3 5 3 1 1 2 4 6 6 8 6 5 8 5 2 2 5 4 8 6 7 8 11 15 16 15
Wind_Direction
349 347 342 339 336 332 328 325 322 323 323 319 318 320 325 325 314 161 228 197 166 188 208 252 69 37 74 77 69 204 40 328 150 155 147 167 129 182 45 127 150 274 118 142 133
350 348 342 336 334 332 327 324 319 318 316 315 313 316 326 332 317 237 241 136 145 168 97 22 346 5 58 56 20 69 96 295 300 190 151 154 154 130 126 144 111 106 109 133 138
349 347 341 335 333 329 324 320 316 313 309 310 310 315 322 322 273 241 175 135 155 177 157 180 183 357 35 44 248 170 254 308 273 111 120 125 123 96 136 145 160 143 140 146 150
345 340 341 341 330 327 324 318 315 310 306 306 309 313 320 278 114 104 145 136 150 145 134 149 136 256 209 211 232 331 259 267 154 127 104 126 110 142 168 170 163 137 141 149 160
336 331 333 336 332 330 325 321 313 306 298 297 304 313 328 26 251 139 140 133 140 160 186 190 179 170 200 164 213 180 303 305 109 98 99 118 109 135 139 142 155 138 148 165 171
336 331 330 336 338 332 326 317 310 299 290 286 293 306 345 312 103 142 140 128 154 158 180 189 188 219 85 70 74 355 289 63 60 75 95 111 125 95 165 148 160 168 180 172 173
333 329 328 328 327 334 323 315 303 294 276 266 282 286 64 226 58 143 153 177 166 167 186 219 266 187 106 87 313 2 12 62 23 41 104 97 13 154 161 166 171 186 196 194 201
329 327 327 326 325 325 321 309 294 281 255 238 249 254 239 282 123 140 177 272 212 214 211 251 241 83 128 83 24 61 44 27 315 4 162 99 220 181 171 170 186 190 199 198 198
329 328 327 325 322 323 315 300 281 202 163 164 119 28 272 172 148 221 173 178 204 272 255 278 291 113 19 124 72 18 179 196 280 213 212 122 152 198 182 179 197 198 198 191 181
330 328 327 325 322 322 319 248 124 110 180 216 258 21 282 226 185 184 191 273 25 336 23 60 50 77 60 82 210 251 182 215 180 207 32 208 204 181 192 193 197 208 204 188 177
328 325 326 326 324 324 338 97 28 21 102 192 187 248 290 271 137 184 158 118 210 50 120 345 96 206 214 208 194 199 222 297 304 157 172 220 207 189 193 207 217 204 198 190 186
331 331 327 329 327 323 190 136 183 185 312 223 231 279 276 89 324 240 105 141 135 202 141 22 240 191 222 237 220 188 245 237 291 149 220 121 232 200 200 213 218 196 193 191 174
329 331 332 330 335 148 290 228 158 317 115 295 187 201 218 140 199 222 134 153 150 215 169 165 234 241 213 222 157 156 202 195 231 135 75 0 282 183 193 205 217 226 211 191 183
326 330 333 328 12 308 275 236 310 166 63 276 248 264 155 133 248 187 160 141 166 205 213 230 263 295 334 224 127 170 217 191 169 116 226 153 267 257 176 207 214 219 197 200 192
322 327 330 323 279 216 259 328 339 58 62 173 212 31 142 148 168 214 181 56 183 183 107 246 272 15 315 233 147 224 191 188 177 145 38 169 67 265 179 209 217 216 206 198 195
321 322 329 124 236 248 309 321 63 38 58 35 136 145 105 307 307 89 127 70 146 174 310 240 269 209 219 261 179 221 96 47 56 86 345 219 163 264 204 216 205 210 208 196 193
323 315 283 273 224 301 320 45 43 130 326 0 5 166 153 197 230 145 155 187 181 105 309 324 261 253 196 286 360 92 67 349 360 24 223 172 111 239 253 247 205 196 207 198 194
323 315 180 225 274 349 55 55 139 56 339 338 320 96 172 161 252 170 131 198 250 99 112 162 319 192 170 186 196 162 151 154 204 215 264 200 231 259 258 266 211 202 199 193 189
321 337 218 274 192 136 73 79 204 189 325 314 337 96 275 271 167 113 196 218 204 166 177 159 271 271 219 141 141 202 185 200 104 25 39 258 290 309 355 27 166 187 171 199 193
9 354 331 328 160 64 73 224 220 263 340 4 54 30 28 301 195 151 178 233 228 188 163 212 296 225 266 128 94 158 161 78 2 180 248 285 276 236 269 228 233 198 195 207 195
37 55 258 33 55 49 131 224 268 278 21 298 215 280 240 255 190 194 204 286 204 137 162 125 119 286 14 185 206 81 199 49 123 132 167 240 264 220 227 223 213 213 210 207 201
20 73 312 50 53 29 99 221 345 336 1 344 232 232 284 242 230 232 209 291 8 58 169 220 167 232 229 263 294 187 193 147 134 237 241 174 253 247 242 252 217 215 203 220 205
56 271 313 78 80 357 316 332 7 17 331 18 325 47 11 357 339 297 270 40 21 58 39 189 328 339 325 340 337 205 187 127 117 81 194 166 266 274 289 251 216 201 193 182 198
53 24 339 39 37 114 21 337 344 329 51 341 337 3 8 346 2 334 348 347 2 7 3 109 138 173 214 240 213 206 195 182 157 139 194 220 262 277 269 239 203 203 191 172 181
26 14 171 347 3 16 343 338 356 13 5 16 5 15 301 298 352 100 325 325 347 347 13 78 226 290 262 265 243 245 205 165 169 185 166 250 207 263 250 229 209 195 134 154 166
64 34 356 31 320 31 359 33 14 346 304 310 8 308 341 154 182 277 70 92 252 343 15 358 279 356 291 322 348 274 268 181 177 163 225 211 258 246 282 120 156 175 161 171 173
340 354 98 337 5 49 78 347 325 358 295 289 319 282 269 48 309 254 203 215 227 169 267 93 64 28 270 332 328 320 256 223 208 124 193 182 263 331 294 246 200 173 179 177 175